Location: Brede
(50.9167°N, 0.6000°E)
Time: 15:47:30
(UTC+00:00)

SJ 16-02 - Pass Details

Date: 08 August 2020
Orbit: 607 x 616 km, 75.0° (Epoch: 23 September)

Event Time Altitude Azimuth Distance (km) Brightness Sun altitude
Exits shadow 01:40:14 24° 143° (SE) 1,270 2.7 -19.8°
Maximum altitude 01:41:55 33° 102° (ESE) 1,049 2.6 -19.6°
Drops below altitude 10° 01:45:52 10° 39° (NE) 1,981 5.1 -19.4°
Sets 01:48:16 0° 30° (NNE) 2,889 6.5 -19.2°
